Location: Broletto
(44.6000°N, 10.5833°E)
Time: 02:14:07
(UTC+00:00)

BREEZE-M DEB (TANK) - Pass Details

Date: 18 April 2021
Orbit: 334 x 11681 km, 49.7° (Epoch: 07 May)

Event Time Altitude Azimuth Distance (km) Brightness Sun altitude
Rises 19:40:56 0° 263° (W) 2,335 7.3 -16.0°
Reaches altitude 10° 19:42:21 10° 267° (W) 1,678 6.6 -16.2°
Maximum altitude 19:45:39 61° 350° (N) 873 4.5 -16.7°
Drops below altitude 10° 19:54:44 10° 70° (ENE) 4,498 7.6 -18.0°
Sets 20:01:17 0° 74° (ENE) 7,097 8.6 -18.9°
